Temperature
16 16 16 16 16 16 16 16 16 16 17 17 17 17 17 16 16 16 16 16 16 16 16 16 16 16 16 16 16 16 16 16 15 15 15 15 15 15
15 15 15 15 15 15 16 16 16 16 16 16 16 16 16 16 16 16 15 15 15 15 15 15 15 15 15 15 15 15 15 15 15 15 15 15 15 15
15 15 15 15 15 15 15 15 15 15 15 15 16 16 16 16 15 15 15 15 15 15 15 15 15 15 15 15 15 15 15 15 15 15 15 15 15 15
15 15 15 15 15 15 15 14 15 15 15 15 15 15 15 15 15 15 15 15 15 15 15 15 15 15 15 15 15 15 15 15 15 15 15 15 15 15
14 14 14 14 14 14 14 14 14 14 14 14 14 15 15 15 15 15 15 14 14 14 15 15 15 15 14 15 15 15 15 15 15 15 15 15 15 15
14 14 14 14 14 14 14 14 14 14 14 14 14 14 14 14 14 14 14 14 14 14 14 14 14 14 14 15 14 15 15 15 15 15 15 14 14 14
14 14 14 14 14 14 14 14 14 14 13 13 13 13 14 14 13 14 14 14 14 14 14 14 14 14 14 14 14 14 14 14 14 14 14 14 14 14
14 14 14 14 14 13 13 13 13 13 13 13 13 13 13 13 13 13 13 13 13 14 14 14 14 14 14 14 14 14 14 14 14 14 14 14 14 14
13 13 13 13 13 13 13 13 13 13 13 13 13 13 13 13 13 13 13 13 13 13 13 13 14 14 14 14 14 14 14 14 14 14 14 14 14 14
13 13 13 13 13 13 13 13 13 13 13 12 13 13 13 13 13 13 13 13 13 13 13 13 13 13 14 14 14 14 14 14 14 13 13 13 13 13
13 13 13 13 13 13 13 12 12 12 12 12 13 13 13 13 12 12 12 12 12 12 13 13 13 13 13 13 14 14 14 14 13 13 13 13 13 13
13 13 13 13 13 12 12 12 12 12 12 12 12 12 12 12 12 12 12 12 12 12 12 12 13 13 13 13 13 13 13 13 13 13 13 13 13 12
12 12 12 12 12 12 12 12 12 12 12 12 12 12 12 12 12 12 12 12 12 12 12 12 12 12 12 12 13 13 13 13 13 13 13 12 12 12
12 12 12 12 12 12 12 12 12 12 12 12 12 12 12 12 12 12 12 12 12 12 12 12 12 12 12 12 12 12 12 12 12 12 12 12 12 12
12 12 12 12 12 12 12 12 12 12 12 12 12 12 12 12 12 12 12 12 12 12 12 12 12 12 12 11 11 12 12 12 12 12 12 12 12 11
12 11 12 11 11 11 12 12 12 12 12 12 12 12 12 12 12 11 11 11 11 11 12 12 11 11 11 11 11 11 11 11 11 11 11 11 11 11
12 12 12 11 11 11 11 11 11 11 11 11 11 11 11 11 11 11 11 11 11 11 11 11 11 11 11 11 11 11 11 11 11 11 11 11 11 11
11 11 11 11 11 11 11 11 11 11 11 11 11 11 11 11 11 11 11 10 10 10 10 11 11 11 11 11 11 10 11 10 10 11 11 10 10 11
11 11 11 11 11 11 11 11 11 11 10 11 11 11 10 10 10 10 10 10 10 10 10 10 10 10 10 10 10 10 10 10 10 10 10 10 10 10
11 11 11 10 10 10 10 10 10 10 10 10 10 10 10 10 10 10 10 9 10 10 10 10 10 10 10 10 10 10 10 10 10 10 10 10 10 10
10 10 10 10 10 10 10 10 10 10 10 10 10 10 9 9 9 9 9 9 9 9 9 10 10 10 10 10 9 9 9 9 9 9 10 9 10 10
10 10 10 10 10 10 10 9 9 9 9 9 9 9 9 9 9 9 9 9 9 9 9 9 9 9 9 9 9 9 9 9 9 9 9 9 9 9
10 9 10 10 9 9 9 9 9 9 8 8 8 8 8 8 8 8 8 8 8 9 9 9 9 9 9 9 9 9 9 9 9 9 9 9 9 9
Wind_Speed
2 3 3 3 3 3 3 2 2 3 3 2 1 1 2 3 5 5 4 8 10 11 11 11 11 11 11 10 11 11 12 12 12 12 13 14 14 15
2 2 3 3 4 3 3 3 2 2 3 2 2 1 1 1 3 3 4 8 10 12 12 13 13 12 12 11 11 12 12 12 12 12 13 13 13 13
3 2 3 3 3 4 3 3 3 2 3 3 3 2 2 1 1 2 4 5 7 11 13 13 13 13 12 12 12 12 12 12 12 12 13 13 13 13
3 3 3 3 3 3 3 4 3 3 2 3 3 3 3 1 1 2 3 4 5 9 13 14 14 14 14 14 14 14 14 14 13 13 13 13 13 13
3 3 3 3 3 3 4 4 3 4 2 3 3 2 3 3 2 3 5 3 5 6 10 13 15 15 15 15 15 16 15 14 14 14 14 13 13 13
3 3 3 2 3 4 4 3 3 3 3 3 4 3 3 3 1 2 4 3 4 5 4 7 10 13 15 15 15 15 15 14 14 14 13 13 13 13
3 4 3 3 3 2 3 2 3 2 3 3 4 3 3 3 3 3 4 4 4 4 4 4 4 6 8 12 13 14 14 14 14 13 13 12 12 12
3 4 4 2 2 3 3 4 3 3 3 3 4 4 4 4 3 4 4 4 5 3 3 5 4 5 5 6 10 12 13 12 13 12 12 12 11 11
3 3 5 4 3 2 2 4 4 5 5 5 5 5 5 4 4 4 4 5 5 4 4 6 5 4 4 5 10 12 12 13 13 12 12 12 12 12
2 2 2 3 5 4 4 3 3 4 5 5 5 6 5 4 4 5 6 6 5 5 4 5 5 4 4 2 7 11 12 12 12 12 12 12 12 12
2 2 2 2 4 4 3 4 4 5 6 6 6 6 6 6 4 4 4 5 6 5 3 4 5 4 3 3 4 9 11 11 12 12 11 11 12 11
2 2 3 3 4 4 3 4 5 6 6 6 5 6 6 6 6 5 5 5 5 4 3 3 4 3 3 3 2 3 6 8 10 10 10 10 10 7
2 2 2 3 3 4 5 5 7 7 6 6 5 5 4 4 4 4 4 4 4 4 3 2 3 3 3 2 2 2 3 3 4 5 8 9 9 8
3 3 3 3 4 6 6 7 9 8 5 5 4 3 3 3 2 3 3 4 4 5 4 3 3 3 3 3 2 1 2 2 2 3 4 6 7 8
4 5 6 7 8 6 7 8 7 5 4 4 4 3 3 3 2 2 3 4 5 5 4 3 3 3 3 3 3 2 2 2 2 2 2 3 4 4
4 6 7 7 8 7 6 5 4 4 4 4 4 4 3 3 2 2 3 3 3 4 3 2 3 4 4 4 3 2 1 1 1 1 2 2 2 3
5 4 4 4 4 3 4 3 3 3 3 4 4 4 3 3 3 3 3 4 3 3 2 2 1 1 2 2 2 2 1 1 1 1 2 2 2 3
4 4 4 3 4 4 4 4 3 3 3 4 4 4 3 3 2 2 3 4 4 3 2 2 1 1 1 1 1 1 1 1 1 1 2 2 2 1
2 4 3 4 4 4 4 4 4 4 3 4 4 4 4 3 3 3 3 3 3 3 2 2 2 1 2 2 1 1 1 1 1 1 1 1 2 2
2 4 4 4 4 4 4 4 4 4 3 4 3 4 3 3 3 3 3 3 4 3 3 2 1 2 3 3 1 2 2 2 2 1 1 1 1 1
4 4 4 4 4 4 4 4 4 4 4 4 4 4 3 3 4 4 3 4 4 3 3 3 2 3 2 1 0 0 0 1 2 2 1 1 1 1
4 4 4 4 4 4 4 4 4 4 5 4 4 4 3 3 3 4 3 3 3 3 3 2 2 2 2 2 2 2 1 1 2 2 1 0 2 2
4 4 4 3 4 4 4 5 5 5 4 4 4 5 4 3 3 3 3 3 3 3 3 3 2 1 1 2 2 2 1 2 2 2 0 1 3 3
Wind_Direction
325 326 309 306 308 314 314 310 296 294 290 271 254 181 157 135 163 189 184 200 206 212 216 219 222 226 228 233 237 238 237 236 237 239 238 236 235 232
293 315 315 309 309 304 308 313 305 283 287 312 300 275 158 221 184 201 212 209 208 214 218 219 223 227 229 231 234 234 233 233 236 236 236 234 233 232
301 305 300 299 312 317 316 313 307 307 282 295 313 335 338 299 204 235 236 212 213 218 216 218 222 227 230 230 231 231 229 231 234 236 236 233 230 230
305 310 304 302 304 297 301 295 290 286 273 279 294 304 297 281 232 239 264 256 233 225 218 218 222 227 229 230 230 229 228 229 232 234 234 232 230 228
316 309 296 302 298 292 284 285 287 290 280 278 285 290 290 286 270 273 278 285 280 246 225 223 226 229 230 230 231 228 228 229 231 232 232 233 233 229
315 305 295 288 285 289 291 282 284 294 291 283 283 288 292 299 286 283 289 283 282 281 263 240 235 234 234 232 231 227 226 228 230 231 231 231 231 229
314 308 302 298 306 292 297 308 302 296 298 294 290 293 293 304 297 284 282 283 275 271 272 255 236 237 238 237 233 228 228 227 226 225 225 226 228 225
317 316 308 303 298 270 273 284 289 272 274 280 289 290 291 285 289 285 289 294 290 277 278 273 252 240 231 221 220 219 220 220 222 222 222 223 223 221
307 309 312 327 347 327 291 275 270 261 248 256 272 278 280 282 284 286 285 283 283 286 292 279 274 265 259 237 210 207 209 215 218 219 220 220 219 218
288 296 311 326 326 329 304 292 273 271 262 254 254 264 272 278 274 274 277 278 276 272 262 271 276 268 268 228 206 201 203 206 210 212 214 214 214 215
322 349 342 344 345 333 316 301 295 291 285 271 259 259 263 275 284 289 279 273 276 271 253 255 265 268 257 254 219 205 200 202 206 209 211 213 213 213
331 3 6 9 348 328 302 297 295 293 299 294 280 270 260 254 253 249 264 271 274 276 274 265 269 269 268 249 229 197 201 208 208 209 211 214 210 205
317 330 355 7 343 313 300 288 281 288 286 281 270 262 252 244 241 238 242 254 266 270 293 309 290 280 263 272 261 223 194 193 195 205 209 211 206 197
329 331 349 345 321 306 298 290 295 298 286 281 279 277 274 269 262 256 246 245 248 253 280 295 278 279 273 275 275 259 213 193 191 200 188 195 206 206
317 320 314 302 296 289 278 287 294 289 285 285 286 287 280 276 270 266 259 247 251 254 263 267 264 273 249 249 263 270 261 237 199 191 189 190 191 183
317 310 298 288 287 286 288 288 280 285 293 294 297 292 294 295 291 286 282 276 267 268 246 238 249 260 255 250 254 269 270 244 202 180 201 206 189 179
320 297 291 289 298 302 301 297 294 298 304 302 301 300 296 298 308 319 314 312 293 280 286 298 297 268 248 251 240 236 227 232 217 207 213 222 220 193
310 295 303 309 317 320 318 316 318 322 317 311 310 312 311 304 306 320 319 311 303 295 292 288 298 294 301 359 344 232 209 210 219 224 210 203 226 196
309 309 320 324 320 319 324 328 329 327 327 325 324 322 316 310 311 311 304 304 305 309 298 275 262 268 269 280 300 300 227 222 232 235 219 209 213 200
303 313 317 321 322 326 333 333 331 328 329 325 328 329 326 319 318 310 309 313 311 305 303 302 280 249 244 254 259 284 254 227 211 220 204 164 127 121
332 330 328 331 333 335 338 336 336 331 335 328 326 328 327 325 320 319 321 317 309 307 311 308 283 260 249 219 201 238 204 200 203 200 188 177 195 197
327 330 329 331 339 341 346 341 339 341 340 337 336 331 329 322 319 316 318 318 313 314 317 310 288 269 243 209 208 213 201 164 133 97 48 214 208 213
333 326 323 335 350 353 355 350 349 347 344 341 336 327 325 325 325 320 315 311 307 314 318 312 308 285 253 224 207 195 173 172 166 135 84 259 209 191
Height
1502 1501 1501 1502 1502 1502 1503 1503 1504 1503 1503 1503 1503 1503 1502 1502 1501 1501 1500 1500 1500 1500 1500 1500 1500 1500 1500 1500 1501 1501 1501 1502 1503 1503 1504 1505 1506 1506
1500 1500 1499 1499 1499 1500 1500 1500 1501 1501 1500 1500 1501 1500 1500 1500 1499 1498 1497 1497 1496 1497 1497 1497 1497 1497 1496 1496 1496 1496 1497 1497 1497 1498 1499 1500 1500 1501
1498 1498 1497 1497 1497 1497 1497 1498 1498 1498 1497 1497 1498 1497 1497 1496 1496 1495 1494 1493 1493 1493 1493 1493 1493 1493 1492 1492 1492 1492 1492 1492 1493 1493 1494 1494 1495 1497
1496 1496 1495 1495 1494 1494 1494 1495 1495 1495 1495 1494 1494 1494 1494 1493 1493 1492 1491 1491 1490 1489 1489 1489 1489 1488 1488 1488 1487 1487 1487 1487 1488 1488 1489 1489 1490 1491
1495 1494 1493 1493 1492 1492 1491 1491 1492 1492 1492 1491 1491 1491 1491 1490 1490 1489 1488 1487 1487 1486 1486 1485 1484 1484 1483 1483 1482 1482 1482 1482 1483 1483 1483 1484 1485 1486
1492 1492 1491 1490 1489 1489 1488 1488 1488 1488 1488 1488 1487 1487 1487 1487 1487 1485 1484 1484 1483 1483 1482 1481 1480 1479 1478 1478 1478 1477 1478 1478 1478 1478 1478 1479 1480 1480
1490 1490 1489 1488 1487 1486 1486 1485 1484 1485 1485 1484 1484 1484 1484 1484 1483 1483 1482 1480 1479 1479 1478 1477 1476 1474 1473 1473 1473 1472 1472 1473 1473 1474 1474 1474 1474 1475
1488 1487 1486 1485 1485 1484 1484 1483 1483 1482 1481 1481 1481 1481 1480 1481 1480 1480 1478 1477 1475 1476 1474 1473 1472 1470 1469 1468 1468 1468 1468 1468 1469 1470 1470 1470 1470 1471
1485 1484 1484 1483 1483 1482 1481 1481 1480 1480 1479 1479 1478 1477 1477 1477 1476 1476 1475 1474 1472 1472 1471 1468 1468 1466 1465 1464 1464 1464 1464 1464 1465 1466 1466 1467 1467 1468
1483 1482 1481 1480 1480 1479 1478 1477 1477 1476 1476 1475 1474 1474 1473 1473 1473 1472 1471 1470 1469 1468 1467 1465 1464 1463 1462 1461 1461 1461 1461 1461 1461 1462 1463 1463 1464 1465
1481 1480 1479 1478 1477 1476 1475 1474 1473 1473 1473 1472 1471 1470 1470 1469 1469 1468 1467 1466 1464 1463 1463 1462 1460 1459 1458 1457 1457 1458 1458 1458 1458 1459 1459 1460 1461 1462
1480 1478 1477 1476 1475 1474 1473 1471 1470 1469 1469 1468 1467 1467 1466 1465 1465 1464 1463 1462 1460 1460 1459 1459 1457 1457 1455 1454 1454 1454 1455 1455 1455 1456 1456 1457 1458 1459
1478 1477 1476 1475 1473 1472 1470 1469 1468 1467 1466 1465 1464 1463 1462 1461 1461 1460 1459 1458 1457 1456 1456 1455 1454 1453 1453 1451 1451 1451 1451 1452 1452 1452 1453 1453 1455 1456
1476 1475 1474 1473 1471 1470 1468 1467 1466 1465 1464 1463 1462 1461 1460 1459 1457 1456 1456 1455 1454 1453 1452 1452 1451 1450 1449 1448 1448 1448 1448 1448 1449 1449 1450 1450 1451 1452
1474 1473 1472 1471 1469 1468 1466 1465 1464 1463 1461 1460 1459 1458 1457 1456 1455 1453 1452 1451 1450 1449 1448 1448 1447 1446 1446 1445 1445 1445 1445 1445 1446 1446 1447 1447 1447 1448
1472 1471 1470 1469 1467 1466 1464 1463 1461 1460 1459 1458 1457 1456 1454 1453 1452 1451 1449 1448 1446 1445 1444 1444 1443 1443 1442 1442 1442 1442 1442 1442 1443 1443 1444 1444 1445 1446
1470 1469 1468 1466 1465 1464 1462 1461 1459 1458 1456 1455 1454 1453 1452 1450 1449 1448 1446 1444 1443 1442 1441 1440 1440 1440 1439 1439 1439 1439 1439 1439 1440 1440 1441 1441 1442 1443
1469 1467 1466 1465 1464 1462 1460 1459 1457 1456 1454 1453 1452 1450 1449 1448 1446 1445 1443 1442 1440 1439 1438 1437 1437 1437 1437 1437 1437 1436 1436 1437 1438 1438 1438 1438 1439 1440
1467 1466 1465 1463 1462 1460 1458 1456 1455 1454 1452 1451 1449 1448 1447 1445 1444 1442 1440 1439 1437 1436 1435 1435 1435 1434 1434 1433 1434 1435 1435 1435 1435 1435 1436 1436 1437 1438
1466 1465 1463 1462 1460 1458 1456 1455 1453 1451 1450 1448 1447 1446 1444 1443 1442 1440 1438 1437 1435 1434 1433 1432 1432 1432 1432 1432 1431 1432 1433 1432 1433 1433 1433 1434 1435 1436
1465 1463 1462 1460 1458 1456 1454 1453 1451 1449 1448 1446 1445 1443 1442 1441 1439 1438 1436 1434 1433 1432 1431 1430 1430 1430 1430 1430 1429 1429 1430 1431 1430 1430 1431 1431 1432 1433
1463 1462 1460 1458 1457 1454 1452 1451 1449 1447 1445 1444 1442 1441 1439 1438 1437 1435 1434 1432 1431 1430 1429 1428 1428 1428 1427 1427 1427 1427 1428 1429 1429 1429 1429 1430 1430 1430
1461 1460 1459 1457 1455 1453 1451 1449 1447 1445 1443 1442 1440 1438 1437 1435 1434 1433 1431 1430 1429 1428 1427 1426 1426 1426 1426 1425 1425 1425 1426 1426 1426 1427 1427 1428 1429 1429